Regional Weather Roundup
Issued by NWS

Home | Current Version | Previous Version | Graphics & Text | Print | Product List | Glossary On
Versions: 1 2 3 4 5 6 7 8 9 10 11 12 13 14 15 16 17 18 19 20 21 22 23 24 25 26 27 28 29 30 31 32 33 34 35 36 37 38 39 40 41 42 43 44 45 46 47 48 49 50
688
ASUS43 KFSD 071910
RWRSD

WEATHER ROUNDUP FOR SOUTH DAKOTA
NATIONAL WEATHER SERVICE SIOUX FALLS SD
100 PM CST SUN FEB 07 2016

NOTE: "FAIR" INDICATES FEW OR NO CLOUDS BELOW 12,000 FEET WITH NO
SIGNIFICANT WEATHER AND/OR OBSTRUCTIONS TO VISIBILITY.


SDZ001>005-009-010-012>017-072000-
NORTHWEST AND NORTH CENTRAL SOUTH DAKOTA

CITY           SKY/WX    TMP DP  RH WIND       PRES   REMARKS
BUFFALO          N/A     39  12  33 NW46G70   30.04R
FAITH            N/A     37  16  42 NW46G58   30.02S
MOBRIDGE       CLOUDY    36  22  56 NW35G48   29.92R
$$

SDZ012>016-024>037-041>051-057-063-072>074-072000-
SOUTHWEST AND SOUTH CENTRAL SOUTH DAKOTA

CITY           SKY/WX    TMP DP  RH WIND       PRES   REMARKS
RAPID CTY ARPT SUNNY     39   7  26 NW47G66   30.15F
PIERRE         CLOUDY    37  22  54 NW36G49   29.96S
CUSTER         SUNNY     28   3  34 NW30G49   30.14F WCI  12
ELLSWORTH AFB  SUNNY     38   8  28 NW47G59   30.13S
PHILIP         MOSUNNY   41  17  38 NW41G61   30.04S
PINE RIDGE     SUNNY     40   5  23 NW33G47   30.18F
SPEARFISH      HVY SNOW  32   9  37 NW38G52   30.22S WCI  16
WINNER         FLURRIES  36  21  54 NW37G52   30.01F
$$

SDZ004>011-016>023-039-040-072000-
NORTHEAST SOUTH DAKOTA

CITY           SKY/WX    TMP DP  RH WIND       PRES   REMARKS
ABERDEEN       FLURRIES  35  23  61 NW38G51   29.82S WCI  20
WATERTOWN      CLOUDY    33  26  75 NW26G40   29.74S WCI  20
BROOKINGS      CLOUDY    33  28  81 NW25G35   29.74F WCI  20
SISSETON         N/A     33  29  85 NW30G40   29.70R WCI  19
$$

SDZ017-020-022-023-036>040-048>070-072000-
SOUTHEAST SOUTH DAKOTA

CITY           SKY/WX    TMP DP  RH WIND       PRES   REMARKS
SIOUX FALLS    LGT SNOW  34  29  82 W23G30    29.82F WCI  22
HURON          FLURRIES  33  29  85 NW33G44   29.85S WCI  18
CHAMBERLAIN    FLURRIES  33  27  79 NW32G45   29.96F WCI  19
MITCHELL       CLOUDY    35  30  82 W30G43    29.89F WCI  22
YANKTON        MOSUNNY  N/A N/A N/A NW35G46   29.90F
$$

ABBREVIATIONS USED IN REMARKS
   TC - TEMPERATURE IN CELSIUS
  WCI - WIND CHILL INDEX
   HX - HEAT INDEX
  VSB - VISIBILITY





USA.gov is the U.S. government's official web portal to all federal, state and local government web resources and services.